GW1852 Weather Reports


time (UTC)temp
C
wind
direction
speed
KPH
gust
KPH
rain 1hr
cm
rain 24hr
cm
rain mn
cm
humidity
%
barometer
mb
20260906234522 17 319 0.0 0.0 0.00 0.30 0.00 74 1015.8
20260906233020 17 323 0.0 0.0 0.00 0.30 0.00 74 1015.7
20260906231517 17 324 0.0 0.0 0.00 0.30 0.00 76 1016.0
20260906230017 16 342 0.0 0.0 0.00 0.30 0.00 78 1016.1
20260906224517 17 351 0.0 0.0 0.00 0.30 0.00 79 1016.1
20260906223014 17 320 0.0 0.0 0.00 0.30 0.00 78 1016.2
20260906221512 16 306 0.0 0.0 0.00 0.30 0.00 78 1016.4
20260906220011 17 296 0.0 0.0 0.00 0.30 0.00 79 1016.4
20260906214518 17 290 0.0 0.0 0.00 0.30 0.00 79 1016.3
20260906213012 17 72 0.0 0.0 0.00 0.30 0.00 75 1016.4
20260906211508 16 51 0.0 0.0 0.00 0.30 0.00 75 1016.5
20260906210006 17 60 0.0 0.0 0.00 0.30 0.00 73 1016.4
20260906204506 17 100 0.0 0.0 0.00 0.30 0.00 73 1016.4
20260906203010 17 72 0.0 0.0 0.00 0.30 0.00 73 1016.5
20260906201501 16 70 0.0 0.0 0.00 0.30 0.00 74 1016.5
20260906200100 16 90 0.0 0.0 0.00 0.30 0.00 76 1016.6
20260906194558 16 72 0.0 0.0 0.00 0.30 0.00 77 1016.7
20260906193057 16 58 0.0 0.0 0.00 0.30 0.00 76 1016.9
20260906191553 16 77 0.0 0.0 0.00 0.30 0.00 77 1016.9
20260906190106 16 91 0.0 0.0 0.00 0.30 0.00 77 1017.0
20260906184550 16 57 0.0 0.0 0.00 0.30 0.00 78 1017.1
20260906183104 16 72 0.0 0.0 0.00 0.30 0.00 81 1016.9
20260906181544 15 74 0.0 0.0 0.00 0.30 0.00 82 1017.2
20260906180050 15 84 0.0 0.0 0.00 0.30 0.00 85 1017.5
20260906174538 15 74 0.0 0.0 0.00 0.30 0.00 88 1017.4
20260906173038 13 63 0.0 0.0 0.00 0.30 0.00 88 1017.6
20260906171534 13 48 0.0 0.0 0.00 0.30 0.00 89 1017.2
20260906170105 13 1 0.0 0.0 0.00 0.30 0.00 89 1018.6
20260906164529 12 342 0.0 0.0 0.00 0.30 0.00 89 1018.7
20260906163029 13 341 0.0 0.0 0.00 0.30 0.00 88 1018.9
20260906161532 12 340 0.0 0.0 0.00 0.30 0.00 87 1018.8
20260906160028 12 4 0.0 0.0 0.00 0.30 0.00 87 1018.8
20260906154526 12 16 0.0 0.0 0.00 0.30 0.00 86 1019.0
20260906153026 12 26 0.0 0.0 0.00 0.30 0.00 87 1019.2
20260906151525 12 9 0.0 0.0 0.00 0.30 0.00 86 1019.2
20260906150024 12 34 0.0 0.0 0.00 0.30 0.00 88 1019.3
20260906144533 12 333 0.0 0.0 0.00 0.33 0.00 89 1019.6
20260906143021 12 15 0.0 0.0 0.00 0.33 0.00 89 1019.6
20260906141517 13 334 0.0 0.0 0.00 0.33 0.00 87 1019.5
20260906140015 14 4 0.0 0.0 0.00 0.33 0.00 86 1019.2
20260906134522 13 4 0.0 0.0 0.00 0.43 0.00 85 1019.0
20260906133016 13 33 0.0 0.0 0.00 0.43 0.00 85 1019.0
20260906131514 14 335 0.0 0.0 0.00 0.43 0.00 84 1018.8
20260906130013 14 25 0.0 0.0 0.00 0.43 0.00 83 1019.0
20260906124521 14 357 0.0 0.0 0.00 0.43 0.00 83 1019.0
20260906123012 14 15 0.0 0.0 0.00 0.43 0.00 85 1019.2
20260906121512 14 38 0.0 0.0 0.00 0.43 0.00 85 1018.6
20260906120010 14 31 0.0 0.0 0.00 0.43 0.00 84 1018.5
20260906114510 14 41 0.0 0.0 0.00 0.43 0.00 83 1018.5
20260906113011 14 53 0.0 0.0 0.00 0.43 0.00 83 1018.8
20260906111515 14 32 0.0 0.0 0.00 0.43 0.00 83 1018.8
20260906110005 14 54 0.0 0.0 0.00 0.43 0.00 83 1018.9
20260906104505 14 59 0.0 0.0 0.00 0.43 0.00 82 1018.9
20260906103004 14 45 0.0 0.0 0.00 0.43 0.00 82 1019.0
20260906101505 14 37 0.0 0.0 0.00 0.43 0.00 84 1018.8
20260906100003 14 41 0.0 0.0 0.00 0.43 0.00 84 1018.8
20260906094502 14 45 0.0 0.0 0.00 0.43 0.00 84 1019.0
20260906093100 14 43 0.0 0.0 0.00 0.43 0.00 85 1018.9
20260906091606 13 25 0.0 0.0 0.00 0.43 0.00 86 1018.8
20260906090057 14 26 0.0 0.0 0.00 0.43 0.00 85 1019.1
20260906084558 13 25 0.0 0.0 0.00 0.43 0.00 86 1019.2
20260906083053 13 1 0.0 0.0 0.00 0.43 0.00 86 1019.6
20260906081550 13 15 0.0 0.0 0.00 0.43 0.00 87 1020.0
20260906080048 13 332 0.0 0.0 0.00 0.43 0.00 86 1020.1
20260906074551 14 307 0.0 0.0 0.00 0.43 0.00 86 1020.1
20260906073047 13 19 0.0 0.0 0.00 0.43 0.00 85 1020.0
20260906071546 13 32 0.0 0.0 0.00 0.43 0.00 84 1020.0
20260906070046 14 27 0.0 0.0 0.00 0.43 0.00 83 1020.1
20260906064546 14 36 0.0 0.0 0.00 0.43 0.00 82 1020.1
20260906063043 14 27 0.0 0.0 0.00 0.43 0.00 82 1020.3
20260906061541 13 25 0.0 0.0 0.00 0.43 0.00 84 1020.5
20260906060038 13 336 0.0 0.0 0.00 0.43 0.00 86 1020.5
20260906054542 13 330 0.0 0.0 0.00 0.43 0.43 86 1020.7
20260906053039 13 346 0.0 1.6 0.00 0.43 0.43 86 1020.7
20260906051536 13 32 0.0 0.0 0.03 0.43 0.43 87 1020.0
20260906050048 13 6 0.0 0.0 0.03 0.43 0.43 85 1019.9
20260906044534 13 14 0.0 0.0 0.03 0.43 0.43 87 1020.0
20260906043034 14 33 0.0 1.6 0.03 0.43 0.43 84 1020.0
20260906041533 14 359 0.0 6.4 0.00 0.41 0.41 83 1019.9
20260906040033 14 30 0.0 0.0 0.08 0.41 0.41 81 1019.2
20260906034533 14 30 0.0 0.0 0.28 0.41 0.41 81 1019.0
20260906033031 15 24 0.0 0.0 0.28 0.41 0.41 76 1019.2
20260906031532 15 29 0.0 0.0 0.28 0.41 0.41 74 1019.6
20260906030029 17 44 0.0 0.0 0.18 0.30 0.30 70 1019.4
20260906024527 16 38 16.1 29.0 0.00 0.13 0.13 64 1019.4
20260906023030 17 44 19.3 30.6 0.00 0.13 0.13 62 1017.7
20260906021526 17 44 12.9 22.5 0.00 0.13 0.13 60 1017.7
20260906020026 18 48 12.9 22.5 0.00 0.13 0.13 59 1017.8
20260906014527 18 46 12.9 24.1 0.00 0.13 0.13 59 1017.8
20260906013030 18 48 14.5 24.1 0.00 0.13 0.13 58 1017.9
20260906011522 19 54 9.7 19.3 0.00 0.13 0.13 56 1018.0
20260906010022 20 43 12.9 29.0 0.00 0.13 0.13 54 1017.8
20260906004521 20 28 12.9 25.7 0.00 0.13 0.13 54 1018.0
20260906003021 20 11 12.9 29.0 0.00 0.13 0.13 52 1017.8
20260906001521 20 42 16.1 25.7 0.00 0.13 0.13 50 1018.2
20260906000036 21 7 17.7 27.4 0.00 0.13 0.13 50 1018.1